This is the latest recevied weather packets stored in our database for station/object CT8ACA-6. If no packets are shown the sender has not sent any weather packets the latest 10 day(s).
| Time | Temp. | Humidity | Pressure | Rain* | Wind** | Luminosity | Snow |
|---|---|---|---|---|---|---|---|
| 1787702208 | 19.44° C | 71% | 1016.5 hPa | 0 mm | - | - | - |
| 1787701607 | 19.44° C | 71% | 1017 hPa | 0 mm | - | - | - |
| 1787701008 | 19.44° C | 70% | 1017 hPa | 0 mm | - | - | - |
| 1787700408 | 19.44° C | 70% | 1017.5 hPa | 0 mm | - | - | - |
| 1787699807 | 20° C | 70% | 1017.5 hPa | 0 mm | - | - | - |
| 1787699207 | 20° C | 69% | 1018.2 hPa | 0 mm | - | - | - |
| 1787698607 | 20.56° C | 69% | 1018.2 hPa | 0 mm | - | - | - |
| 1787698007 | 20.56° C | 70% | 1018.5 hPa | 0 mm | - | - | - |
| 1787694406 | 21.11° C | 70% | 1019.2 hPa | 0 mm | - | - | - |
| 1787693806 | 21.11° C | 69% | 1019.2 hPa | 0 mm | - | - | - |
| 1787692006 | 21.11° C | 68% | 1020 hPa | 0 mm | - | - | - |
| 1787691406 | 21.11° C | 68% | 1020 hPa | 0 mm | - | - | - |
| 1787690805 | 21.67° C | 68% | 1020.5 hPa | 0 mm | - | - | - |
| 1787690206 | 22.22° C | 68% | 1020.5 hPa | 0 mm | - | - | - |
| 1787689606 | 22.22° C | 68% | 1021 hPa | 0 mm | - | - | - |
| 1787689005 | 22.78° C | 68% | 1021 hPa | 0 mm | - | - | - |
| 1787688405 | 22.78° C | 68% | 1021.5 hPa | 0 mm | - | - | - |
| 1787687805 | 23.33° C | 68% | 1021.5 hPa | 0 mm | - | - | - |
| 1787687205 | 23.33° C | 68% | 1022 hPa | 0 mm | - | - | - |
| 1787686605 | 23.33° C | 67% | 1022 hPa | 0 mm | - | - | - |
| 1787686005 | 23.89° C | 68% | 1022.5 hPa | 0 mm | - | - | - |
| 1787685404 | 24.44° C | 69% | 1022.5 hPa | 0 mm | - | - | - |
| 1787684805 | 23.89° C | 69% | 1022.9 hPa | 0 mm | - | - | - |
| 1787684205 | 23.89° C | 69% | 1022.9 hPa | 0 mm | - | - | - |
| 1787683604 | 23.89° C | 69% | 1023.4 hPa | 0 mm | - | - | - |
* Rain latest hour (hover to see other rain measurements)
** Current wind speed in m/s (hover to see current wind gust speed)